Weather History for Warrensburg, MO

Change the Weather History Date:

Tuesday, March 12, 2013

  Actual Average (KSZL) Record (KSZL)
Temperature  
Mean Temperature 38 °F -  
Max Temperature 46 °F 49 °F 76 °F (2008)
Min Temperature 30 °F 30 °F 3 °F (1998)
Degree Days  
Heating Degree Days 27    
Moisture  
Dew Point 24 °F    
Average Humidity 64    
Maximum Humidity 75    
Minimum Humidity 40    
Precipitation  
Precipitation 0.01 in - - ()
Sea Level Pressure  
Sea Level Pressure 30.16 in    
Wind  
Wind Speed 7 mph (West)    
Max Wind Speed 21 mph    
Max Gust Speed 30 mph    
Visibility 10 miles    
Events      
Averages and records for this station are not official NWS values.
T = Trace of Precipitation, MM = Missing Value Source: NWS Daily Summary

Daily Weather History Graph

Daily Weather History Graph

Search for Another Location

Airport:

Trip Planner

Search our weather history database for the weather conditions in past years. The results will help you decide how hot, cold, wet, or windy it might be!

Date:

Astronomy

Mar. 12, 2013 Rise Set
Actual Time 7:30 AM CDT 7:19 PM CDT
Civil Twilight 7:04 AM CDT 7:46 PM CDT
Nautical Twilight 6:33 AM CDT 8:16 PM CDT
Astronomical Twilight 6:02 AM CDT 8:48 PM CDT
Moon 7:38 AM CDT (3/12) 8:34 PM CDT (3/12)
Length of Visible Light 12h 41m
Length of Day
11h 48m
New Moon, 1% of the Moon is Illuminated
Mar 12
New Moon
Mar 19
First Quarter
Mar 27
Full
Apr 2
Last Quarter
Apr 10
New

Hourly Weather History & Observations

Time (CDT) Temp. Windchill Dew Point Humidity Pressure Visibility Wind Dir Wind Speed Gust Speed Precip Events Conditions
12:15 AM 30.2 °F 25.4 °F 23.0 °F 75% 30.02 in 10.0 mi WSW 4.6 mph - N/A   Clear
12:35 AM 30.2 °F 25.4 °F 23.0 °F 75% 30.01 in 10.0 mi SW 4.6 mph - N/A   Clear
12:55 AM 30.2 °F 26.7 °F 23.0 °F 75% 30.02 in 10.0 mi SW 3.5 mph - N/A   Clear
1:15 AM 30.2 °F 25.4 °F 23.0 °F 75% 30.03 in 10.0 mi SSW 4.6 mph - N/A   Clear
1:35 AM 30.2 °F 26.7 °F 23.0 °F 75% 30.03 in 10.0 mi SW 3.5 mph - N/A   Clear
1:55 AM 30.2 °F 25.4 °F 23.0 °F 75% 30.02 in 10.0 mi SW 4.6 mph - N/A   Clear
2:15 AM 30.2 °F - 23.0 °F 75% 30.03 in 10.0 mi Calm Calm - N/A   Clear
2:55 AM 30.2 °F 26.7 °F 23.0 °F 75% 30.04 in 10.0 mi West 3.5 mph - N/A   Clear
3:15 AM 30.2 °F 26.7 °F 23.0 °F 75% 30.03 in 10.0 mi West 3.5 mph - N/A   Clear
3:55 AM 30.2 °F 26.7 °F 23.0 °F 75% 30.04 in 10.0 mi West 3.5 mph - N/A   Clear
4:15 AM 30.2 °F 26.7 °F 23.0 °F 75% 30.05 in 10.0 mi West 3.5 mph - N/A   Clear
4:35 AM 30.2 °F 26.7 °F 23.0 °F 75% 30.05 in 10.0 mi West 3.5 mph - N/A   Clear
4:55 AM 30.2 °F 26.7 °F 23.0 °F 75% 30.05 in 10.0 mi West 3.5 mph - N/A   Clear
5:15 AM 30.2 °F 25.4 °F 23.0 °F 75% 30.06 in 10.0 mi West 4.6 mph - N/A   Clear
5:35 AM 32.0 °F 28.7 °F 23.0 °F 69% 30.08 in 10.0 mi West 3.5 mph - N/A   Clear
5:55 AM 32.0 °F - 21.2 °F 64% 30.08 in 10.0 mi Calm Calm - N/A   Clear
6:15 AM 32.0 °F 27.5 °F 21.2 °F 64% 30.11 in 10.0 mi West 4.6 mph - N/A   Clear
6:35 AM 32.0 °F 28.7 °F 21.2 °F 64% 30.10 in 10.0 mi West 3.5 mph - N/A   Clear
6:55 AM 30.2 °F 23.4 °F 21.2 °F 69% 30.12 in 10.0 mi WSW 6.9 mph - N/A   Clear
7:15 AM 32.0 °F 27.5 °F 21.2 °F 64% 30.12 in 10.0 mi West 4.6 mph - N/A   Clear
7:35 AM 32.0 °F 27.5 °F 21.2 °F 64% 30.12 in 10.0 mi West 4.6 mph - N/A   Clear
7:55 AM 32.0 °F 26.4 °F 23.0 °F 69% 30.13 in 10.0 mi West 5.8 mph - N/A   Clear
8:15 AM 32.0 °F 26.4 °F 23.0 °F 69% 30.14 in 10.0 mi West 5.8 mph - N/A   Clear
8:35 AM 32.0 °F 27.5 °F 23.0 °F 69% 30.14 in 10.0 mi WNW 4.6 mph - N/A   Clear
8:55 AM 32.0 °F 27.5 °F 23.0 °F 69% 30.15 in 10.0 mi WNW 4.6 mph - N/A   Mostly Cloudy
9:15 AM 32.0 °F 27.5 °F 24.8 °F 75% 30.15 in 10.0 mi West 4.6 mph - N/A   Mostly Cloudy
9:35 AM 32.0 °F 26.4 °F 24.8 °F 75% 30.16 in 10.0 mi West 5.8 mph - N/A   Scattered Clouds
9:55 AM 33.8 °F 27.7 °F 24.8 °F 70% 30.17 in 10.0 mi West 6.9 mph - N/A   Clear
10:15 AM 35.6 °F 29.2 °F 26.6 °F 70% 30.18 in 10.0 mi West 8.1 mph - N/A   Clear
10:35 AM 35.6 °F 29.9 °F 26.6 °F 70% 30.18 in 10.0 mi West 6.9 mph - N/A   Scattered Clouds
10:55 AM 37.4 °F 31.4 °F 26.6 °F 65% 30.19 in 10.0 mi WSW 8.1 mph - N/A   Mostly Cloudy
11:15 AM 37.4 °F 30.8 °F 28.4 °F 70% 30.19 in 10.0 mi WSW 9.2 mph - N/A   Scattered Clouds
11:35 AM 41.0 °F 34.7 °F 28.4 °F 61% 30.19 in 10.0 mi WSW 10.4 mph - N/A   Clear
11:55 AM 41.0 °F 33.5 °F 30.2 °F 65% 30.19 in 10.0 mi WSW 13.8 mph 20.7 mph N/A   Clear
12:15 PM 42.8 °F 35.4 °F 28.4 °F 57% 30.18 in 10.0 mi West 15.0 mph - N/A   Clear
12:35 PM 42.8 °F 35.4 °F 28.4 °F 57% 30.18 in 10.0 mi West 15.0 mph 25.3 mph N/A   Clear
12:55 PM 44.6 °F 37.8 °F 28.4 °F 53% 30.18 in 10.0 mi West 15.0 mph 20.7 mph N/A   Scattered Clouds
1:15 PM 44.6 °F 36.4 °F 26.6 °F 49% 30.18 in 10.0 mi West 20.7 mph 26.5 mph N/A   Scattered Clouds
1:35 PM 46.4 °F 38.7 °F 26.6 °F 46% 30.18 in 10.0 mi West 20.7 mph 26.5 mph N/A   Scattered Clouds
1:55 PM 44.6 °F 36.6 °F 24.8 °F 46% 30.18 in 10.0 mi WNW 19.6 mph 26.5 mph N/A   Clear
2:15 PM 44.6 °F 36.4 °F 26.6 °F 49% 30.17 in 10.0 mi West 20.7 mph 25.3 mph N/A   Clear
2:55 PM 46.4 °F 38.7 °F 24.8 °F 43% 30.17 in 10.0 mi WNW 20.7 mph 29.9 mph N/A   Mostly Cloudy
3:15 PM 42.8 °F 34.5 °F 21.2 °F 42% 30.17 in 10.0 mi WNW 18.4 mph 25.3 mph N/A   Scattered Clouds
3:35 PM 46.4 °F 39.8 °F 23.0 °F 40% 30.17 in 10.0 mi West 16.1 mph 26.5 mph N/A   Mostly Cloudy
3:55 PM 42.8 °F 34.3 °F 24.8 °F 49% 30.17 in 10.0 mi WNW 19.6 mph 26.5 mph N/A   Mostly Cloudy
4:15 PM 42.8 °F 36.2 °F 26.6 °F 53% 30.18 in 10.0 mi NW 12.7 mph 21.9 mph N/A   Overcast
4:35 PM 42.8 °F 34.3 °F 24.8 °F 49% 30.18 in 10.0 mi NW 19.6 mph 23.0 mph N/A   Scattered Clouds
4:55 PM 42.8 °F 34.0 °F 23.0 °F 46% 30.19 in 10.0 mi WNW 20.7 mph 25.3 mph N/A   Mostly Cloudy
5:15 PM 41.0 °F 33.1 °F 24.8 °F 53% 30.20 in 10.0 mi NW 15.0 mph 24.2 mph N/A   Mostly Cloudy
5:35 PM 41.0 °F 32.8 °F 24.8 °F 53% 30.20 in 10.0 mi WNW 16.1 mph 20.7 mph N/A   Mostly Cloudy
5:55 PM 41.0 °F 32.8 °F 24.8 °F 53% 30.21 in 10.0 mi WNW 16.1 mph 24.2 mph N/A   Scattered Clouds
6:15 PM 41.0 °F 31.6 °F 23.0 °F 49% 30.21 in 10.0 mi West 20.7 mph 25.3 mph N/A   Scattered Clouds
6:35 PM 41.0 °F 33.1 °F 26.6 °F 57% 30.22 in 10.0 mi NW 15.0 mph 20.7 mph N/A   Scattered Clouds
6:55 PM 37.4 °F 29.3 °F 24.8 °F 60% 30.22 in 10.0 mi NW 12.7 mph - N/A   Scattered Clouds
7:15 PM 37.4 °F 29.8 °F 26.6 °F 65% 30.23 in 10.0 mi NW 11.5 mph - N/A   Scattered Clouds
7:35 PM 35.6 °F 28.6 °F 26.6 °F 70% 30.24 in 10.0 mi NW 9.2 mph - N/A   Clear
7:55 PM 35.6 °F 29.2 °F 24.8 °F 65% 30.25 in 10.0 mi NW 8.1 mph - N/A   Clear
8:15 PM 35.6 °F 28.0 °F 24.8 °F 65% 30.27 in 10.0 mi NW 10.4 mph 17.3 mph N/A   Clear
8:35 PM 33.8 °F 25.8 °F 24.8 °F 70% 30.27 in 10.0 mi NW 10.4 mph - N/A   Clear
8:55 PM 33.8 °F 25.3 °F 24.8 °F 70% 30.28 in 10.0 mi WNW 11.5 mph 17.3 mph N/A   Clear
9:15 PM 33.8 °F 25.8 °F 23.0 °F 65% 30.28 in 10.0 mi WNW 10.4 mph 18.4 mph N/A   Clear
9:35 PM 33.8 °F 26.4 °F 23.0 °F 65% 30.29 in 10.0 mi WNW 9.2 mph - N/A   Clear
9:55 PM 32.0 °F 27.5 °F 23.0 °F 69% 30.29 in 10.0 mi West 4.6 mph - N/A   Clear
10:15 PM 32.0 °F 26.4 °F 23.0 °F 69% 30.29 in 10.0 mi West 5.8 mph - 0.01 in   Clear
10:35 PM 32.0 °F 25.6 °F 23.0 °F 69% 30.30 in 10.0 mi West 6.9 mph - 0.01 in   Clear
10:55 PM 32.0 °F 25.6 °F 23.0 °F 69% 30.30 in 10.0 mi West 6.9 mph - 0.01 in   Clear
11:15 PM 32.0 °F 26.4 °F 23.0 °F 69% 30.31 in 10.0 mi West 5.8 mph - N/A   Clear
11:35 PM 32.0 °F 26.4 °F 23.0 °F 69% 30.32 in 10.0 mi WNW 5.8 mph - N/A   Clear
11:55 PM 32.0 °F 23.0 °F 23.0 °F 69% 30.32 in 10.0 mi NW 11.5 mph - N/A   Clear